Volver al catálogo

STARLINK-34838

ActivoComunicacionesVLEO
NORAD 65343·PAYLOAD·🇺🇸 United States

Lanzado Aug 27, 2025 desde Cape Canaveral Space Force Station

Loading…

Próximos Pases (próximas 24 horas)

TLE

ActualizadoSource: CelesTrak SupGP

Época: Sep 14, 2026, 20:52 UTC

1 65343C 25189W   26257.86993056  .00046339  00000+0  13694-2 0  2570
2 65343  53.1595  45.8964 0001151  74.5479 189.8474 15.34360473    19

Sigue STARLINK-34838 en tiempo real con AllMySat

Download on the App Store